Location: Unspecified
(58.9933°N, 5.6375°E)
Time: 19:59:50
(UTC+01:00)

CZ-3 Stage 3 - Visible Passes

Search period start: 02 March 2015 00:00
Search period end: 12 March 2015 00:00
Orbit: 431 x 34799 km, 31.1° (Epoch: 28 February)

Date Brightness Start Highest point End Pass type
(mag) Time Alt. Az. Time Alt. Az. Time Alt. Az.
02 Mar 7.5 11:57:30 10° SSE 18:37:14 55° S 20:35:00 16° SE visible
04 Mar 7.4 15:17:41 10° SSW 23:28:52 36° SW 23:57:56 22° SSW visible
05 Mar 7.4 11:49:40 10° SSE 18:31:45 55° S 20:31:11 14° SE visible
07 Mar 7.4 15:11:56 10° SSW 23:22:50 35° WSW 23:54:04 20° SSW visible
08 Mar 7.4 11:42:04 10° SSE 18:26:08 55° S 20:27:18 12° SE visible
10 Mar 7.4 15:06:12 10° SSW 23:16:41 34° WSW 23:50:09 18° SSW visible
11 Mar 7.4 11:34:40 10° SSE 18:20:22 56° S 20:23:01 10° SE visible
